[[{"header":{"parameterUnit":"m.s-1","parameterCategory":1,"la1":30.2991,"la2":30.254,"lo1":-89.0895,"lo2":-89.0444,"dy":0.0017,"dx":0.0017,"nx":28,"ny":28,"refTime":"2023-08-05T09:00:00:Z","depth":0,"parameterNumber":2,"parameterNumberName":"U-component_of_WINDS"},"data":[0,0,0,0,0,0,0,0,0,0,0,0,0,0,0,0,0,0,0,0,0,0,0,0,0,0,0,0,0,0,0,0,0,0,0,0,0,0,0,0,0,0,0,0,0,0,0,0,0,0,0,0,0,0,0,0,0,0,4.8851,4.8852,0,4.8954,4.8955,4.8957,4.887,4.8867,4.8863,4.886,4.8965,4.8971,4.8977,0,0,0,0,0,0,0,0,0,0,0,0,0,4.8575,4.8581,4.885,4.8852,4.8853,4.8954,4.8956,4.8957,4.8871,4.8866,4.8862,4.8858,4.8963,4.897,4.8978,0,0,0,0,0,0,0,0,0,0,0,0,0,4.8688,4.8582,4.885,4.8822,4.8821,4.8954,4.8956,4.8957,4.8872,4.8866,4.8861,4.8856,4.8961,4.897,4.8979,4.9145,0,0,4.9007,4.9011,0,0,0,0,0,0,0,0,4.8682,4.8699,4.8825,4.8825,4.8823,4.8894,4.8897,4.902,4.8873,4.8853,4.886,4.8853,4.8946,4.8956,4.8987,4.9149,4.9154,4.9008,4.9014,4.9018,4.902,0,0,0,0,0,0,0,4.8674,4.8694,4.8891,4.8827,4.8826,4.8804,4.8814,4.892,4.8928,4.8854,4.8848,4.8861,4.8944,4.8979,4.8989,4.9156,4.9008,4.9016,4.9022,4.9025,4.9455,4.9461,0,0,0,0,0,0,4.867,4.8688,4.8888,4.8895,4.8738,4.8813,4.8824,4.8877,4.8927,4.8929,4.8866,4.8857,4.8965,4.8978,4.8992,4.9187,4.9017,4.9026,4.9031,4.9449,4.9456,4.9463,0,0,0,0,0,0,4.8664,4.8688,4.8884,4.879,4.8813,4.8824,4.8883,4.8881,4.8916,4.8936,4.8937,4.89,4.8962,4.8979,4.9106,4.9189,4.903,4.9039,4.9442,4.9451,4.9459,4.9579,0,0,0,0,0,0,4.8656,4.8687,4.8751,4.8792,4.8818,4.8998,4.8888,4.8887,4.8932,4.8921,4.8968,4.897,4.8959,4.9093,4.9116,4.9199,4.9046,4.9435,4.9446,4.9457,4.9567,4.959,4.961,0,0,0,0,0,4.8647,4.8781,4.8754,4.8779,4.8898,4.9003,4.9017,4.9002,4.8939,4.9002,4.9015,4.8969,4.9177,4.9107,4.9132,4.9219,4.9429,4.9443,4.9456,4.9558,4.9586,4.961,0,0,0,0,0,0,4.8749,4.8786,4.8757,4.8908,4.8953,4.8988,4.9067,4.9033,4.9096,4.9083,4.9061,4.9072,4.9205,4.9225,4.9146,4.938,4.9293,4.9312,4.9362,4.9389,4.941,4.9401,4.9054,0,0,0,0,0,4.879,4.8872,4.8899,4.903,4.9053,4.9057,4.9102,4.9086,4.9131,4.9149,4.9171,4.9217,4.9291,4.9342,4.9412,4.957,4.9577,4.9642,4.9664,4.9681,4.9697,4.9779,4.9807,4.9506,4.9506,4.9505,0,0,4.8873,4.8903,4.8957,4.9051,4.9084,4.9168,4.9073,4.9167,4.9229,4.9163,4.9284,4.9302,4.9351,4.9493,4.9557,4.9514,4.9782,4.9698,4.9712,4.9718,4.9795,4.9824,4.9849,4.9515,4.9513,4.9512,0,0,4.9068,4.9101,4.9211,4.9246,4.9296,4.9297,4.9324,4.9364,4.9373,4.9494,4.9446,4.9519,4.965,4.9685,4.9721,4.9928,4.9886,4.9952,5.0062,5.0142,5.0166,5.0187,5.0257,5.0284,4.9968,4.9968,4.9968,0,4.9165,4.9291,4.9273,4.9369,4.9411,4.9355,4.9466,4.9501,4.9572,4.9601,4.9552,4.9713,4.9743,4.9891,4.9941,4.9973,5.0001,4.9945,5.0164,5.0185,5.0204,5.0271,5.0298,4.9975,4.9974,4.9974,4.9973,0,4.9407,4.9495,4.9578,4.9647,4.9698,4.9802,4.9798,4.9852,4.9831,4.9837,4.9959,4.9992,5.0067,5.0101,5.0083,5.0247,5.0218,5.0168,5.0079,5.024,5.0303,5.0329,4.9986,4.9983,4.9981,4.9979,0,0,4.9668,4.9725,4.9756,4.9785,4.9836,4.9903,5.0004,5.0076,5.0122,5.0173,5.0254,5.0366,5.0318,5.0359,5.0343,5.0414,5.0571,5.0354,5.0355,5.0391,5.075,5.0786,5.0816,5.0545,5.055,5.0554,5.0745,0,4.9863,5.0037,5.0022,5.0186,5.0265,5.0213,5.03,5.034,5.0348,5.0416,5.0424,5.0502,5.0436,5.0459,5.0527,5.0538,5.0643,5.0524,5.0619,5.0622,5.0605,5.0849,5.0888,5.1067,5.077,5.0774,5.0777,0,5.0113,5.0171,5.0343,5.038,5.0412,5.0491,5.0555,5.0621,5.0665,5.0665,5.071,5.0682,5.0781,5.0692,5.0826,5.0746,5.0784,5.0795,5.0802,5.0808,5.0708,5.0859,5.1124,5.1149,5.0816,5.0813,5.081,0,5.0282,5.0404,5.0522,5.0549,5.0596,5.0652,5.0674,5.0712,5.0756,5.0812,5.084,5.0908,5.0944,5.0996,5.0986,5.0923,5.1123,5.1034,5.1124,5.1124,5.1166,5.1163,5.1438,5.1196,5.1196,5.1195,5.1195,0,5.0499,5.0605,5.0598,5.067,5.0787,5.0769,5.0885,5.09,5.0935,5.1007,5.0968,5.1037,5.1021,5.109,5.1083,5.1194,5.1211,5.1213,5.1209,5.1215,5.1214,5.1237,5.1224,5.1202,5.1201,5.1199,5.1198,0,5.0707,5.0707,5.0831,5.0865,5.0876,5.096,5.0988,5.1055,5.106,5.1153,5.1173,5.118,5.1259,5.1255,5.1344,5.1339,5.1474,5.1458,5.146,5.1455,5.1544,5.1535,5.1841,5.1879,5.1615,5.1618,5.162,0,5.0844,5.0924,5.0966,5.1012,5.1037,5.1113,5.1157,5.1142,5.1189,5.1244,5.1304,5.1379,5.1437,5.1565,5.1577,5.1644,5.1627,5.173,5.1637,5.1639,5.1625,5.1619,5.1625,5.1747,5.175,5.1753,5.1755,0,5.1085,5.1081,5.1147,5.1212,5.1266,5.1317,5.1363,5.1403,5.1393,5.1448,5.1528,5.1573,5.1663,5.1737,5.1801,5.1822,5.1786,5.1784,5.1808,5.1813,5.1809,5.1809,5.1506,5.1776,5.1774,5.1773,5.1771,5.1771,5.126,5.1327,5.1367,5.1441,5.1474,5.1518,5.1582,5.1594,5.166,5.1732,5.1719,5.1808,5.1847,5.1929,5.1956,5.2024,5.1987,5.2023,5.2031,5.2039,5.2048,5.1801,5.2036,5.2036,5.2035,5.2035,5.2034,0,5.1496,5.1519,5.1587,5.1653,5.171,5.1673,5.1722,5.1772,5.185,5.189,5.1948,5.2038,5.2109,5.2127,5.2195,5.2245,5.223,5.2263,5.2258,5.2263,5.2079,5.205,5.2274,5.2274,5.2274,5.2274,5.2274,5.2274,5.1626,5.1738,5.1738,5.1865,5.1887,5.1973,5.2003,5.2043,5.2074,5.2177,5.2235,5.2246,5.2277,5.2346,5.2409,5.2412,5.2437,5.2476,5.2473,5.23,5.2276,5.2253,5.2225,5.2483,5.2483,5.2651,5.2652,5.2653]},{"header":{"parameterUnit":"m.s-1","parameterCategory":1,"la1":30.2991,"la2":30.254,"lo1":-89.0895,"lo2":-89.0444,"dy":0.0017,"dx":0.0017,"nx":28,"ny":28,"refTime":"2023-08-05T09:00:00:Z","depth":0,"parameterNumber":3,"parameterNumberName":"V-component_of_WINDS"},"data":[0,0,0,0,0,0,0,0,0,0,0,0,0,0,0,0,0,0,0,0,0,0,0,0,0,0,0,0,0,0,0,0,0,0,0,0,0,0,0,0,0,0,0,0,0,0,0,0,0,0,0,0,0,0,0,0,0,0,5.9161,5.9162,0,5.922,5.9221,5.9222,5.9162,5.916,5.9158,5.9156,5.9211,5.9215,5.9219,0,0,0,0,0,0,0,0,0,0,0,0,0,5.8991,5.8995,5.9161,5.9162,5.9163,5.922,5.9221,5.9222,5.9163,5.916,5.9157,5.9155,5.921,5.9215,5.9219,0,0,0,0,0,0,0,0,0,0,0,0,0,5.9059,5.8996,5.9161,5.914,5.9139,5.922,5.9221,5.9222,5.9163,5.916,5.9156,5.9153,5.9209,5.9214,5.922,5.9322,0,0,5.9236,5.9239,0,0,0,0,0,0,0,0,5.9055,5.9065,5.9143,5.9142,5.9141,5.9181,5.9181,5.9255,5.9164,5.9154,5.9156,5.9152,5.9204,5.9209,5.9228,5.9325,5.9327,5.9237,5.924,5.9242,5.9244,0,0,0,0,0,0,0,5.9051,5.9063,5.9184,5.9144,5.9143,5.9126,5.9132,5.9195,5.9197,5.9155,5.9151,5.9159,5.9202,5.9223,5.9229,5.9328,5.9237,5.9241,5.9245,5.9247,5.951,5.9513,0,0,0,0,0,0,5.9049,5.9059,5.9182,5.9186,5.9089,5.9132,5.9138,5.9171,5.9197,5.9197,5.9161,5.9156,5.9215,5.9222,5.923,5.935,5.9242,5.9247,5.9251,5.9506,5.951,5.9514,0,0,0,0,0,0,5.9046,5.9061,5.918,5.9122,5.9136,5.9139,5.9176,5.9174,5.9194,5.9202,5.9201,5.9182,5.9213,5.9223,5.93,5.9352,5.925,5.9255,5.9502,5.9507,5.9513,5.9593,0,0,0,0,0,0,5.9041,5.906,5.9101,5.9123,5.9139,5.925,5.9179,5.9178,5.9205,5.9197,5.9221,5.9222,5.9211,5.9292,5.9305,5.9357,5.9259,5.9497,5.9504,5.9511,5.9586,5.9601,5.9613,0,0,0,0,0,5.9035,5.912,5.9103,5.9118,5.919,5.9254,5.9262,5.925,5.9209,5.9249,5.9253,5.9221,5.9344,5.93,5.9315,5.9369,5.9494,5.9502,5.951,5.9579,5.9598,5.9613,0,0,0,0,0,0,5.9103,5.9123,5.9104,5.9199,5.9225,5.9244,5.9293,5.927,5.9306,5.9298,5.9279,5.9285,5.9366,5.9375,5.9326,5.9469,5.9412,5.9424,5.946,5.9477,5.9491,5.9486,5.9264,0,0,0,0,0,5.9129,5.9181,5.9195,5.9278,5.9292,5.9291,5.9318,5.9305,5.9331,5.9341,5.9351,5.9376,5.942,5.9449,5.949,5.9587,5.959,5.9631,5.9645,5.9657,5.9666,5.9716,5.9734,5.9542,5.9542,5.9542,0,0,5.9183,5.9201,5.9234,5.9292,5.931,5.9362,5.93,5.9358,5.9395,5.9349,5.9422,5.9431,5.9457,5.9543,5.9582,5.9554,5.972,5.9667,5.9676,5.968,5.9726,5.9744,5.976,5.9548,5.9547,5.9546,0,0,5.9308,5.9328,5.9398,5.9418,5.9447,5.9446,5.9462,5.9484,5.9488,5.9562,5.9527,5.9571,5.9648,5.9667,5.9687,5.9817,5.9788,5.9831,5.9903,5.9951,5.9966,5.998,6.0024,6.0041,5.9841,5.9841,5.9842,0,5.9371,5.945,5.9436,5.9496,5.9521,5.9483,5.9552,5.9572,5.9613,5.963,5.9598,5.9692,5.9707,5.9797,5.9829,5.9847,5.9863,5.9828,5.9966,5.9979,5.9991,6.0033,6.005,5.9846,5.9846,5.9845,5.9845,0,5.9525,5.9579,5.9632,5.9673,5.9704,5.9769,5.9762,5.9795,5.978,5.9781,5.9855,5.9871,5.9914,5.9935,5.992,6.0022,6.0003,5.9969,5.9911,6.0014,6.0053,6.007,5.9853,5.9852,5.985,5.9849,0,0,5.9694,5.9726,5.9745,5.9763,5.9792,5.9833,5.9894,5.9937,5.9964,5.9994,6.0043,6.0108,6.0077,6.0099,6.0086,6.0129,6.0229,6.0089,6.009,6.0113,6.0338,6.0363,6.0382,6.021,6.0213,6.0216,6.0335,0,5.9817,5.9926,5.9915,6.0017,6.0065,6.003,6.0083,6.0105,6.0108,6.0148,6.0149,6.0195,6.0151,6.0164,6.0205,6.0208,6.0273,6.0199,6.0253,6.0255,6.0246,6.0402,6.0428,6.0541,6.0351,6.0354,6.0355,0,5.9977,6.0012,6.012,6.014,6.0159,6.0208,6.0245,6.0285,6.0308,6.0307,6.0332,6.0311,6.037,6.0313,6.0392,6.0342,6.0364,6.0368,6.0372,6.0375,6.0311,6.0408,6.0577,6.0593,6.038,6.0378,6.0376,0,6.0086,6.0161,6.0234,6.025,6.0276,6.031,6.0322,6.0343,6.0369,6.0401,6.0417,6.0455,6.0476,6.0505,6.0494,6.0454,6.0575,6.0517,6.0574,6.0574,6.06,6.0598,6.0773,6.0617,6.0617,6.0616,6.0616,0,6.0225,6.0291,6.0284,6.0329,6.0401,6.0387,6.0458,6.0465,6.0484,6.0527,6.0499,6.054,6.0524,6.0564,6.0556,6.0622,6.0632,6.0631,6.0627,6.0632,6.0632,6.0645,6.0636,6.0621,6.062,6.0619,6.0618,0,6.0359,6.0357,6.0434,6.0452,6.0458,6.051,6.0525,6.0566,6.0566,6.0622,6.0634,6.0633,6.0678,6.0671,6.0721,6.0715,6.0797,6.0785,6.079,6.0786,6.0842,6.0836,6.103,6.1053,6.0884,6.0886,6.0887,0,6.0447,6.0497,6.052,6.0548,6.0563,6.0609,6.0635,6.0622,6.065,6.068,6.0717,6.076,6.0794,6.0867,6.087,6.0908,6.0895,6.096,6.09,6.0903,6.0893,6.089,6.0894,6.0971,6.0973,6.0975,6.0976,0,6.0602,6.0598,6.0638,6.0677,6.071,6.074,6.0767,6.0791,6.078,6.0813,6.0859,6.0885,6.0936,6.0978,6.1013,6.1023,6.0997,6.0995,6.101,6.1015,6.1014,6.1013,6.082,6.0991,6.0989,6.0988,6.0987,6.0987,6.0714,6.0756,6.0779,6.0823,6.0843,6.0868,6.0907,6.0912,6.0951,6.0992,6.0982,6.1034,6.1054,6.1099,6.1113,6.1152,6.1127,6.1149,6.1154,6.1159,6.1165,6.101,6.1158,6.1158,6.1157,6.1157,6.1157,0,6.0865,6.0878,6.092,6.0958,6.0993,6.0968,6.0995,6.1025,6.1072,6.1094,6.1128,6.118,6.122,6.1227,6.1264,6.1294,6.1283,6.1304,6.1301,6.1303,6.1186,6.1169,6.1313,6.1313,6.1313,6.1313,6.1312,6.1312,6.0948,6.1017,6.1016,6.1094,6.1106,6.1157,6.1175,6.1198,6.1215,6.1275,6.1309,6.1313,6.1328,6.1366,6.1402,6.1402,6.1416,6.1442,6.1438,6.1327,6.1312,6.1297,6.128,6.1446,6.1446,6.1551,6.1552,6.1553]}]]